Temp
73 73 71 70 72 74 74 74 75 76 77 78 79 78 77 75 75 78 74 82 81 80 82 82 81 81 81 81 80 81 81 81 81 80 81 81 81 80 80 80 80 80 80
73 72 73 74 74 74 74 74 75 76 77 77 78 79 79 76 77 76 74 77 81 81 81 82 81 81 80 80 80 80 81 81 80 80 80 79 79 79 79 79 81 80 80
71 73 74 74 74 74 77 76 76 76 76 76 74 76 79 79 77 74 74 74 77 81 81 81 80 80 80 80 79 79 79 78 77 77 78 79 78 77 77 78 79 80 79
74 75 75 75 76 76 77 76 76 75 73 73 70 72 75 77 77 73 72 72 72 74 79 80 79 79 79 79 79 78 77 76 76 76 76 76 77 77 76 74 76 78 79
79 75 75 76 77 76 76 76 75 74 73 73 74 75 74 73 74 74 72 71 71 71 71 79 79 79 80 80 79 78 77 77 76 76 76 75 75 76 76 76 75 77 78
79 76 75 76 77 76 75 75 74 74 73 70 76 74 72 73 72 71 71 70 69 69 69 71 71 72 79 79 79 78 77 77 76 76 76 75 75 75 75 76 74 73 77
79 76 75 74 75 74 75 75 74 72 73 70 70 70 71 72 70 69 69 68 68 68 68 68 66 67 70 78 77 76 77 77 76 75 75 74 74 74 74 73 75 74 72
80 78 76 75 76 75 73 76 74 72 71 70 67 65 67 71 68 69 68 69 67 68 68 68 67 67 66 68 70 76 75 75 74 75 74 73 73 73 73 74 73 73 72
79 79 77 75 74 75 74 74 74 73 70 71 70 67 63 65 64 68 67 67 68 67 68 68 67 66 65 64 69 72 75 75 75 75 73 73 73 72 73 73 74 73 71
79 79 78 77 75 74 73 74 76 73 70 70 69 70 67 68 63 63 65 65 68 67 66 67 66 65 66 64 68 70 74 73 72 74 73 73 72 72 73 73 73 74 73
79 80 79 78 77 74 74 74 74 73 72 70 69 67 65 67 66 62 60 63 63 65 66 66 65 64 65 65 65 68 71 72 72 72 72 72 72 72 73 73 74 74 74
77 78 79 77 77 76 75 75 74 74 72 71 70 69 65 64 65 63 61 61 62 62 63 65 63 63 64 64 68 70 71 71 70 70 70 71 71 72 72 73 74 75 75
75 76 76 77 77 77 76 74 74 74 73 70 70 68 67 67 67 65 63 61 60 61 62 62 62 63 64 63 64 69 72 70 69 68 69 69 69 69 70 71 73 75 75
74 76 76 78 78 78 77 75 74 74 73 71 70 69 67 67 68 67 65 62 59 59 60 60 61 62 63 63 64 72 66 70 68 68 67 67 67 68 68 69 71 73 74
74 75 77 77 77 77 75 74 73 73 73 71 70 70 68 68 68 68 67 65 65 58 58 59 59 62 62 63 65 63 63 70 69 67 67 66 66 66 67 68 70 70 71
73 74 75 75 76 76 75 73 72 73 73 72 71 70 69 69 68 68 68 66 64 63 54 58 59 62 62 63 64 63 62 68 68 67 66 65 65 66 67 67 68 69 70
72 73 73 73 73 73 74 72 72 73 72 72 71 70 70 69 69 69 68 64 62 60 55 57 61 61 61 60 62 61 63 59 61 67 66 65 65 65 66 66 66 67 68
73 72 73 72 73 74 74 72 73 74 73 71 71 71 71 70 69 68 67 63 63 60 56 55 59 60 60 61 61 59 63 62 58 66 66 65 64 64 64 64 64 64 63
73 74 74 75 74 74 74 74 74 74 71 72 71 71 71 69 69 68 66 64 61 62 56 56 55 58 59 60 59 60 59 58 62 66 66 65 64 64 63 64 63 62 60
74 72 73 73 73 73 73 73 74 73 72 72 72 72 71 69 69 68 65 64 63 58 55 56 54 54 58 59 59 57 54 58 58 61 63 62 63 64 65 65 65 64 60
72 71 72 73 73 73 76 73 72 71 71 71 72 71 71 70 70 68 67 63 60 56 55 55 53 52 55 58 57 58 57 57 57 58 57 57 56 58 59 63 64 64 62
72 72 72 72 72 75 70 66 68 69 70 70 70 68 68 70 68 67 68 67 65 58 54 54 52 52 52 58 58 58 57 56 55 58 56 56 54 53 54 55 61 62 61
70 70 71 71 71 72 66 64 65 68 69 70 68 65 65 66 66 65 65 65 65 65 65 57 55 53 53 55 60 57 57 57 57 57 57 55 56 53 54 55 60 61 60
69 69 69 71 72 71 63 62 63 69 69 69 67 65 63 62 62 62 61 62 61 60 60 61 59 57 57 56 59 60 60 58 58 57 57 55 56 56 58 58 61 61 59
68 67 69 68 67 62 57 58 64 68 70 69 67 66 63 61 61 61 62 61 59 56 59 61 61 61 60 60 59 57 55 55 56 56 56 56 57 57 58 58 57 60 58
68 66 68 66 62 63 57 56 59 66 67 69 68 65 63 63 59 59 62 60 58 56 56 56 56 58 58 59 61 58 56 54 57 56 57 56 57 57 55 58 59 59 59
MSLP
1014.39 1014.05 1014.30 1014.60 1014.43 1014.12 1014.06 1013.98 1013.84 1013.79 1013.88 1014.05 1014.03 1014.01 1014.06 1014.38 1014.60 1014.61 1014.77 1014.67 1014.99 1015.17 1015.20 1015.42 1015.39 1015.52 1015.69 1015.66 1015.79 1015.94 1016.29 1016.48 1016.58 1016.67 1016.78 1016.84 1016.98 1017.36 1017.68 1017.87 1018.28 1018.66 1019.37
1014.00 1014.05 1013.99 1013.87 1013.73 1013.75 1013.83 1013.66 1013.66 1013.74 1013.75 1013.60 1013.73 1013.31 1013.38 1013.76 1013.90 1014.11 1014.26 1014.65 1014.87 1015.09 1015.33 1015.32 1015.46 1015.53 1015.67 1015.81 1015.77 1015.80 1016.03 1016.33 1016.64 1016.67 1016.65 1016.71 1016.74 1017.48 1017.74 1018.46 1018.04 1018.42 1019.13
1014.35 1013.85 1013.84 1013.81 1013.72 1013.64 1013.36 1013.23 1013.41 1013.45 1013.68 1013.51 1013.21 1013.15 1012.93 1012.85 1013.22 1013.77 1013.89 1014.01 1014.34 1014.78 1015.17 1015.23 1015.39 1015.65 1015.79 1015.94 1015.84 1015.81 1016.16 1016.42 1016.64 1016.69 1016.52 1016.34 1016.51 1017.45 1018.05 1018.33 1018.56 1018.41 1018.87
1014.31 1014.08 1014.01 1014.09 1013.96 1013.58 1013.44 1013.73 1013.75 1013.73 1013.83 1013.75 1013.24 1012.85 1012.92 1012.88 1013.06 1013.47 1013.84 1014.26 1014.31 1014.65 1014.97 1015.19 1015.39 1015.59 1015.77 1015.89 1015.80 1016.11 1016.40 1016.63 1016.77 1016.80 1016.67 1016.49 1016.45 1017.07 1017.66 1017.84 1018.77 1018.72 1018.69
1013.86 1014.04 1014.00 1013.93 1013.77 1013.65 1013.77 1013.92 1013.90 1014.05 1014.03 1013.83 1013.42 1013.04 1012.99 1013.22 1013.49 1013.69 1013.80 1014.36 1014.54 1014.57 1014.87 1015.19 1015.44 1015.68 1015.67 1015.85 1016.13 1016.28 1016.42 1016.54 1016.76 1016.79 1016.79 1016.72 1016.68 1017.10 1017.66 1018.48 1018.39 1018.88 1018.93
1013.78 1014.06 1014.21 1013.78 1013.69 1013.87 1014.11 1014.31 1014.35 1014.07 1014.09 1014.23 1013.60 1013.58 1013.29 1013.44 1013.59 1013.83 1014.07 1014.43 1014.78 1014.93 1015.29 1015.45 1015.69 1015.75 1015.78 1015.95 1016.28 1016.47 1016.45 1016.58 1016.75 1016.82 1016.80 1016.77 1016.83 1017.24 1017.64 1017.89 1018.07 1018.78 1019.18
1013.72 1013.94 1013.80 1013.87 1013.81 1014.20 1014.42 1014.27 1014.21 1014.21 1014.02 1014.05 1014.22 1014.05 1014.02 1013.98 1014.17 1014.23 1014.69 1014.95 1014.88 1015.25 1015.88 1015.79 1015.85 1016.00 1015.93 1015.84 1016.22 1016.68 1016.73 1016.64 1016.83 1017.05 1017.10 1016.90 1016.95 1017.08 1017.66 1017.84 1017.87 1018.66 1018.95
1013.54 1013.56 1013.78 1013.94 1014.02 1014.22 1014.34 1014.23 1014.19 1014.21 1014.04 1013.80 1014.32 1014.53 1014.53 1014.45 1014.59 1014.61 1014.66 1015.10 1015.27 1015.54 1015.82 1015.78 1015.81 1015.67 1016.07 1016.10 1016.10 1016.30 1016.49 1016.58 1016.89 1017.09 1017.37 1017.09 1016.84 1017.11 1017.66 1018.35 1018.11 1018.33 1018.47
1013.53 1013.55 1013.64 1013.92 1014.10 1014.21 1014.32 1014.26 1014.20 1014.15 1014.08 1014.13 1014.07 1014.23 1014.76 1014.92 1015.06 1014.97 1014.81 1014.86 1015.09 1015.18 1015.16 1015.41 1015.72 1015.77 1016.00 1016.07 1016.10 1016.06 1016.33 1016.47 1016.52 1016.94 1017.35 1017.16 1017.06 1017.21 1017.85 1018.26 1018.45 1018.66 1018.15
1013.38 1013.57 1013.53 1013.59 1013.85 1014.04 1014.08 1013.93 1013.98 1013.96 1014.21 1014.41 1014.50 1014.24 1014.24 1014.55 1015.16 1015.09 1014.91 1014.94 1015.32 1015.38 1015.51 1015.60 1015.68 1015.82 1015.95 1015.98 1015.98 1016.08 1016.05 1016.45 1016.81 1016.87 1017.23 1017.21 1016.98 1017.27 1017.86 1018.17 1018.26 1018.34 1018.70
1013.20 1013.23 1013.21 1013.25 1013.52 1013.73 1013.82 1014.03 1013.95 1013.93 1013.97 1013.99 1014.19 1014.69 1014.85 1014.73 1014.85 1015.25 1015.41 1015.44 1015.37 1015.52 1015.65 1015.71 1015.65 1015.81 1015.94 1016.06 1016.12 1016.32 1016.51 1016.69 1016.90 1017.23 1017.32 1017.39 1017.26 1017.55 1017.78 1017.95 1018.15 1018.14 1018.69
1013.20 1013.07 1012.83 1012.86 1012.97 1013.31 1013.50 1013.64 1013.71 1013.63 1013.67 1013.64 1013.77 1014.07 1014.23 1014.56 1014.83 1015.10 1015.46 1015.27 1015.64 1015.58 1015.64 1015.71 1015.81 1015.93 1016.06 1016.31 1016.21 1016.11 1016.60 1016.93 1017.14 1017.36 1017.48 1017.44 1017.45 1017.56 1017.91 1017.92 1018.10 1017.89 1018.18
1013.32 1013.17 1013.21 1012.89 1012.73 1012.85 1013.04 1013.18 1013.25 1013.19 1013.27 1013.44 1013.58 1013.57 1013.67 1013.79 1014.00 1014.23 1014.80 1015.10 1015.30 1015.59 1015.60 1015.70 1016.01 1015.99 1016.18 1016.34 1016.46 1016.54 1016.75 1017.17 1017.54 1017.69 1017.66 1017.76 1017.74 1017.80 1018.07 1018.08 1018.12 1018.00 1017.87
1013.39 1013.22 1013.03 1012.77 1012.65 1012.74 1012.79 1012.94 1012.99 1012.76 1012.93 1013.14 1013.16 1013.38 1013.44 1013.58 1013.82 1013.86 1014.16 1014.54 1015.19 1015.52 1015.55 1015.67 1015.88 1015.94 1016.13 1016.40 1016.55 1016.53 1016.94 1017.46 1017.62 1018.00 1017.91 1018.00 1018.14 1018.08 1018.12 1018.07 1018.12 1018.12 1018.07
1012.98 1012.88 1012.79 1012.71 1012.69 1012.73 1012.94 1012.86 1012.83 1012.69 1012.67 1012.74 1012.89 1013.03 1013.25 1013.35 1013.69 1013.64 1013.50 1013.84 1014.19 1014.86 1015.19 1015.58 1015.70 1015.66 1016.03 1016.10 1016.47 1016.58 1016.96 1017.27 1017.71 1017.98 1018.32 1018.35 1018.31 1018.38 1018.13 1018.02 1017.98 1018.07 1018.23
1012.85 1012.88 1012.89 1012.87 1012.88 1012.81 1012.78 1012.77 1012.65 1012.41 1012.42 1012.18 1012.13 1012.56 1012.70 1013.00 1013.07 1013.32 1013.23 1013.29 1013.77 1014.16 1015.03 1015.37 1015.53 1015.60 1015.84 1015.96 1016.52 1016.88 1017.15 1017.38 1017.60 1017.94 1018.38 1018.52 1018.41 1018.44 1018.27 1018.16 1018.17 1018.24 1018.34
1012.80 1012.84 1012.96 1012.87 1012.74 1012.63 1012.33 1012.24 1012.23 1011.98 1011.75 1011.50 1011.45 1011.59 1011.94 1012.22 1012.38 1012.58 1012.86 1013.19 1013.38 1013.69 1014.82 1015.38 1015.51 1015.76 1016.20 1016.54 1016.65 1016.97 1017.09 1017.46 1017.71 1017.94 1018.37 1018.58 1018.54 1018.56 1018.54 1018.50 1018.53 1018.68 1018.74
1012.33 1012.40 1012.45 1012.57 1012.45 1012.23 1011.97 1011.80 1011.46 1011.06 1011.29 1011.19 1010.85 1010.84 1011.13 1011.67 1011.71 1012.19 1012.51 1012.91 1013.28 1013.75 1014.40 1015.13 1015.58 1015.99 1016.44 1016.46 1016.66 1017.07 1017.23 1017.48 1017.76 1017.89 1018.30 1018.51 1018.62 1018.76 1018.85 1018.81 1018.96 1019.22 1019.24
1012.19 1012.19 1012.20 1012.02 1011.96 1011.98 1011.66 1011.26 1011.06 1010.76 1010.81 1010.57 1010.35 1010.39 1010.35 1010.87 1011.28 1011.63 1012.25 1012.73 1013.04 1013.52 1013.95 1014.60 1015.38 1015.86 1016.14 1016.72 1017.11 1017.22 1017.49 1017.62 1017.57 1017.85 1018.10 1018.46 1018.65 1018.88 1018.96 1019.05 1019.27 1019.44 1019.63
1011.90 1011.95 1011.85 1011.75 1011.54 1011.43 1011.20 1010.92 1010.75 1010.49 1010.16 1009.88 1009.93 1009.70 1010.00 1010.32 1010.63 1011.04 1012.01 1012.43 1013.00 1013.72 1014.05 1014.81 1015.39 1016.06 1016.35 1016.71 1017.03 1017.51 1017.92 1017.76 1017.92 1018.03 1018.12 1018.41 1018.67 1018.89 1018.96 1019.08 1019.29 1019.55 1019.84
1011.73 1011.73 1011.57 1011.40 1011.23 1011.11 1010.93 1010.69 1010.46 1010.21 1009.98 1009.70 1009.49 1009.31 1009.45 1009.46 1010.20 1010.68 1011.50 1012.09 1012.83 1013.68 1014.22 1014.97 1015.65 1016.35 1016.50 1016.66 1016.87 1017.30 1017.60 1017.84 1018.08 1018.12 1018.54 1018.67 1018.84 1019.00 1019.12 1019.25 1019.43 1019.66 1019.98
1011.66 1011.59 1011.57 1011.30 1011.04 1010.90 1010.63 1010.58 1010.43 1010.24 1009.81 1009.69 1009.53 1009.59 1009.64 1009.57 1009.99 1010.83 1011.26 1011.39 1011.85 1012.86 1014.07 1014.68 1015.43 1015.98 1016.33 1016.41 1016.56 1016.95 1017.37 1017.92 1018.10 1017.81 1018.44 1018.73 1018.91 1019.17 1019.12 1019.29 1019.49 1019.77 1019.91
1011.71 1011.70 1011.59 1011.37 1011.12 1010.85 1010.51 1010.39 1010.41 1010.11 1009.76 1009.64 1009.48 1009.73 1009.97 1010.28 1010.12 1010.61 1011.29 1011.82 1012.20 1012.54 1012.59 1013.39 1014.45 1015.09 1015.66 1015.69 1016.01 1016.72 1017.14 1017.38 1017.62 1017.87 1018.16 1018.57 1018.87 1019.11 1019.10 1019.22 1019.33 1019.53 1019.79
1012.01 1011.89 1011.72 1011.45 1011.16 1011.05 1010.90 1010.72 1010.44 1010.03 1009.81 1009.71 1009.66 1009.95 1010.06 1010.48 1010.69 1011.31 1011.62 1012.02 1012.54 1012.82 1012.89 1013.23 1013.66 1014.03 1014.47 1015.00 1015.48 1015.87 1016.45 1017.10 1017.56 1017.94 1017.96 1018.26 1018.51 1018.67 1018.57 1018.74 1018.99 1019.31 1019.68
1012.14 1012.17 1012.01 1011.95 1011.79 1012.16 1011.91 1011.39 1010.73 1010.28 1010.02 1010.05 1010.06 1010.21 1010.46 1010.85 1011.27 1011.61 1012.03 1012.24 1012.89 1013.24 1012.94 1012.96 1013.45 1013.77 1014.13 1014.69 1015.19 1015.99 1016.65 1017.17 1017.49 1017.74 1017.83 1017.98 1018.24 1018.44 1018.53 1018.65 1018.72 1018.96 1019.44
1012.26 1012.43 1012.46 1012.67 1012.71 1012.58 1012.51 1012.05 1011.66 1011.07 1010.62 1010.46 1010.48 1010.70 1010.96 1011.25 1011.67 1011.93 1012.37 1012.52 1013.10 1013.57 1013.45 1013.70 1013.94 1014.25 1014.57 1014.84 1015.17 1015.60 1016.24 1016.71 1016.96 1017.27 1017.14 1017.54 1017.73 1018.07 1018.42 1018.49 1018.51 1018.84 1019.36
Wind_Speed
3 2 1 1 4 3 4 4 4 4 5 5 6 7 8 7 6 3 2 11 10 7 7 8 7 6 6 5 5 10 14 14 14 14 14 14 15 15 14 16 18 19 17
1 3 3 1 3 3 3 4 3 4 4 3 6 8 9 7 7 6 4 5 10 9 8 8 7 8 6 4 4 5 8 10 12 12 13 14 15 12 11 16 17 18 19
4 4 3 4 4 4 5 2 3 1 1 4 5 3 6 8 5 5 4 3 7 11 10 9 9 8 7 7 7 6 6 6 4 2 8 12 12 13 22 15 16 17 20
6 3 2 2 4 2 3 2 1 2 2 3 4 4 3 3 4 6 4 3 4 4 8 10 9 9 8 9 9 9 7 7 6 4 3 0 5 7 15 16 12 17 19
4 2 2 3 2 1 2 2 1 1 0 4 5 3 3 2 4 4 5 4 4 4 3 10 11 10 10 9 9 10 10 8 7 6 4 4 6 7 8 21 26 17 19
6 5 4 3 2 3 4 3 2 2 1 1 3 5 4 3 4 2 3 3 3 1 1 4 4 5 11 10 10 10 11 10 8 6 5 5 5 7 8 17 21 23 20
6 5 3 3 2 1 2 1 1 2 1 2 1 1 4 4 4 2 3 2 3 1 4 5 3 3 4 12 12 11 9 10 8 5 3 5 4 7 7 4 11 19 11
5 5 3 3 4 2 4 1 0 2 2 1 3 1 3 2 3 2 2 2 3 3 4 5 4 5 3 2 8 12 11 9 7 5 3 4 5 7 6 8 4 16 13
5 5 4 4 3 2 4 3 3 3 2 1 1 4 1 2 2 1 4 3 1 2 1 1 1 2 1 2 7 9 10 8 8 5 2 3 3 5 5 6 6 11 20
4 5 5 5 5 3 4 3 3 3 2 1 2 3 3 3 2 3 3 2 2 2 3 2 2 3 3 2 7 7 9 9 5 4 3 2 3 4 4 4 3 2 19
3 5 6 6 6 4 5 4 5 4 2 3 3 2 0 1 2 3 2 2 2 2 2 2 1 1 2 2 2 2 4 4 8 5 4 3 2 2 3 4 2 1 15
3 4 6 6 5 5 5 5 5 6 5 3 2 3 5 4 3 3 3 3 3 1 1 1 1 0 2 2 4 4 6 11 9 5 3 2 1 3 4 5 4 4 8
2 3 5 4 4 6 6 5 5 6 5 3 5 4 3 3 3 3 2 2 3 2 2 2 2 2 2 2 2 3 8 10 9 6 4 1 2 3 4 5 6 5 5
4 4 6 5 5 5 4 4 3 4 5 4 5 5 3 2 1 3 3 4 2 2 2 2 3 4 3 3 4 8 4 7 7 5 4 3 1 3 5 5 7 6 3
4 6 4 3 4 4 4 2 4 5 5 4 5 4 3 3 3 3 4 4 4 4 5 4 3 4 3 3 5 2 5 9 7 6 5 3 1 2 5 6 3 3 2
4 3 4 5 6 6 4 4 5 6 5 4 3 6 5 3 4 4 4 4 3 3 2 2 2 2 4 3 3 3 5 8 9 7 4 1 1 1 4 7 7 5 4
4 5 4 5 6 6 6 5 6 8 7 5 4 6 8 8 7 6 3 1 3 4 3 1 2 2 3 5 1 2 3 5 3 7 4 3 2 1 5 7 7 8 6
5 4 5 5 6 6 6 7 8 7 5 6 7 8 8 6 9 6 4 4 4 3 4 4 2 2 3 4 3 2 2 3 3 3 4 4 4 3 4 5 6 7 8
4 4 4 5 4 6 6 6 6 7 4 6 7 8 6 8 7 5 4 3 4 3 3 5 4 2 2 2 2 2 1 3 2 3 4 4 4 4 5 6 5 5 6
3 2 2 4 5 6 6 6 6 6 5 5 7 6 5 7 8 7 6 5 5 4 4 5 4 3 2 2 3 3 1 1 1 1 1 2 4 3 6 6 6 3 2
1 3 4 5 6 5 5 6 6 6 6 6 6 5 6 8 9 9 7 6 7 4 4 5 4 2 2 3 4 2 2 2 2 2 2 1 1 1 2 5 5 7 7
3 4 6 6 6 5 9 4 5 5 5 5 5 2 1 7 9 10 10 13 13 9 5 5 4 4 4 4 3 3 3 2 2 3 3 2 3 3 3 2 7 7 7
3 5 5 6 7 7 7 3 6 3 4 4 2 4 3 1 7 7 8 9 8 11 13 8 8 6 5 7 7 4 3 3 2 2 3 2 3 3 4 4 9 8 7
3 4 5 7 7 6 9 6 7 4 4 5 1 4 5 5 6 6 7 7 4 4 6 4 7 7 5 7 7 5 5 4 2 2 2 3 2 2 3 4 10 9 8
5 5 5 8 8 10 16 12 7 5 4 5 3 2 5 5 7 8 6 8 5 2 5 6 7 8 8 12 8 5 4 3 2 3 4 3 3 2 2 3 3 11 9
6 4 7 8 9 8 18 20 16 5 5 4 3 4 8 6 8 7 5 6 6 2 4 6 5 7 6 8 12 4 4 3 3 2 4 4 3 3 2 1 3 5 4
Wind_Direction
205 302 196 217 258 254 259 261 250 247 241 233 228 207 219 228 244 241 243 218 216 210 180 205 207 214 222 223 223 211 215 221 227 234 233 226 222 217 205 193 189 180 184
226 246 245 304 307 299 249 254 263 264 277 257 214 219 218 211 219 193 188 211 192 181 180 184 183 181 175 162 156 178 211 220 230 232 234 237 229 205 236 221 196 190 185
295 281 359 343 322 296 299 296 316 254 278 324 289 228 225 212 198 170 164 163 164 167 177 180 173 167 154 151 142 136 131 123 130 161 227 234 236 207 207 221 217 196 193
218 255 355 320 285 336 29 48 333 7 293 296 305 308 263 224 149 165 155 157 141 156 181 176 170 163 162 166 155 141 134 126 119 97 78 309 256 221 182 210 231 222 189
232 262 232 201 214 66 28 15 359 227 322 346 319 330 295 117 129 141 158 137 152 156 149 177 170 175 181 179 164 159 149 140 127 117 102 46 23 53 170 189 210 228 201
204 198 237 108 46 36 18 13 346 317 81 335 343 14 11 88 96 149 139 118 110 116 202 211 180 198 194 195 184 159 145 143 138 130 107 82 44 39 68 179 181 238 221
194 194 191 106 106 84 272 194 242 333 330 12 66 308 51 63 83 45 72 108 135 240 298 268 171 205 231 199 175 176 182 157 140 122 109 102 70 56 56 43 183 184 266
211 185 171 192 194 192 251 248 266 264 264 38 118 58 11 348 66 109 124 140 183 180 232 243 200 205 232 190 180 198 205 166 164 149 120 82 53 41 28 64 97 170 191
215 224 188 197 229 214 225 223 207 212 242 9 74 143 105 229 340 4 57 64 335 177 171 230 233 183 237 247 215 199 198 168 156 149 127 64 67 45 358 44 69 171 173
223 237 219 211 216 219 240 219 228 236 131 256 55 32 60 137 163 289 36 46 56 103 134 138 169 173 194 240 245 231 200 176 170 144 147 134 9 16 351 4 50 128 178
228 244 235 224 216 208 227 212 233 232 208 172 166 154 312 285 34 96 268 307 21 46 41 49 86 162 106 218 24 320 249 131 126 136 136 145 142 311 1 332 319 235 182
266 272 282 243 218 208 204 212 235 236 231 218 183 186 183 179 178 136 233 235 249 223 125 119 239 162 110 128 172 122 125 120 122 126 125 155 304 320 358 319 275 256 199
300 271 293 246 222 216 213 212 216 231 219 208 199 227 199 202 145 165 153 239 197 186 180 190 221 209 186 178 245 170 144 127 127 138 140 139 354 351 3 316 284 245 227
243 271 281 256 236 241 244 209 227 249 217 226 220 209 224 225 218 142 161 180 197 203 203 158 191 200 181 163 190 207 119 127 125 144 152 172 330 325 359 330 269 273 203
246 247 267 309 279 271 276 276 260 266 230 222 226 226 213 216 221 214 191 195 175 194 209 189 173 192 160 166 197 172 133 148 165 170 180 216 214 314 19 10 234 273 174
294 301 314 323 321 313 310 286 273 273 262 245 194 196 215 214 210 223 211 207 201 173 181 146 184 140 141 132 244 176 163 160 185 174 209 202 237 303 67 52 54 92 111
253 269 286 281 272 281 277 272 265 259 248 259 196 203 226 209 215 210 202 204 184 146 124 124 95 106 111 111 207 162 154 145 187 174 176 184 188 207 99 75 68 63 73
248 238 253 262 261 257 271 267 267 261 280 267 228 192 216 218 212 198 176 217 179 158 129 143 117 107 103 177 150 173 145 154 155 190 173 197 184 185 140 106 92 77 59
262 275 273 273 290 278 287 285 267 283 279 259 237 219 224 190 211 187 173 190 169 135 125 135 129 109 123 129 103 78 138 111 176 203 206 186 194 198 174 166 112 93 59
140 344 254 274 278 281 282 278 282 294 270 249 250 222 200 191 202 181 175 181 146 125 111 116 99 103 113 147 117 116 106 97 141 76 191 165 195 189 193 188 191 161 111
284 281 296 290 282 287 288 301 306 289 294 300 266 215 197 187 185 174 167 162 139 122 128 129 109 113 151 153 161 156 145 131 194 161 149 237 148 149 215 198 202 196 195
320 310 303 300 307 297 289 308 282 300 297 297 301 87 146 172 170 161 168 169 162 146 147 134 153 162 176 159 148 162 130 148 225 182 154 228 171 198 216 203 206 199 195
337 322 313 315 303 289 287 291 300 297 319 309 270 154 123 111 133 130 147 151 160 170 169 155 162 174 165 182 149 149 159 151 219 153 138 188 163 201 206 215 214 209 196
0 351 344 344 337 347 3 8 318 339 354 359 129 162 138 140 126 123 119 112 111 171 159 179 169 177 170 166 169 165 162 139 72 104 170 175 161 184 179 187 203 202 192
30 19 14 23 19 30 7 360 349 12 38 34 43 135 129 126 120 129 129 125 115 72 59 185 150 153 157 147 143 119 133 129 199 212 196 168 165 141 167 176 184 191 184
60 31 51 40 30 39 19 21 8 357 25 29 58 90 116 121 144 140 135 133 128 151 112 91 90 80 99 135 148 137 156 157 170 193 198 171 146 145 173 185 162 164 164